• In Latvia
  • List of Countries
  • For 7 days
  • Water Temperature
  • Satellite Maps
  • Weather Map
  • Weather Widgets
  • user-avatar
    Login

    Hourly Weather Melenki

    Today, 16 July, Monday

    Time Temperature Precipitation Wind Pressure Humidity
    00:00 +19°C° 0.4 mm 1 mps 739 mmHg 96%
    01:00 +18°C° 0.4 mm 2 mps 739 mmHg 97%
    02:00 +18°C° 0.4 mm 2 mps 739 mmHg 97%
    03:00 +18°C° 0 mm 2 mps 739 mmHg 97%
    04:00 +18°C° 0 mm 2 mps 739 mmHg 97%
    05:00 +18°C° 0 mm 2 mps 739 mmHg 97%
    06:00 +19°C° 0.1 mm 3 mps 739 mmHg 93%
    07:00 +21°C° 0.1 mm 3 mps 739 mmHg 88%
    08:00 +22°C° 0.1 mm 3 mps 739 mmHg 84%
    09:00 +24°C° 0.6 mm 3 mps 739 mmHg 80%
    10:00 +25°C° 0.6 mm 4 mps 739 mmHg 76%
    11:00 +26°C° 0.6 mm 4 mps 739 mmHg 71%
    12:00 +27°C° 0.2 mm 4 mps 739 mmHg 68%
    13:00 +28°C° 0.2 mm 4 mps 739 mmHg 64%
    14:00 +28°C° 0.2 mm 4 mps 739 mmHg 60%
    15:00 +28°C° 0.2 mm 4 mps 739 mmHg 63%
    16:00 +27°C° 0.2 mm 4 mps 739 mmHg 66%
    17:00 +27°C° 0.2 mm 3 mps 738 mmHg 69%
    18:00 +25°C° 0 mm 3 mps 738 mmHg 73%
    19:00 +24°C° 0 mm 3 mps 738 mmHg 77%
    20:00 +21°C° 0 mm 3 mps 738 mmHg 81%
    21:00 +21°C° 0 mm 3 mps 738 mmHg 82%
    22:00 +20°C° 0 mm 3 mps 739 mmHg 82%
    23:00 +20°C° 0 mm 3 mps 739 mmHg 83%

    Tomorrow, 17 July, Tuesday

    Time Temperature Precipitation Wind Pressure Humidity
    00:00 +19°C° 0 mm 3 mps 738 mmHg 84%
    01:00 +19°C° 0 mm 3 mps 738 mmHg 86%
    02:00 +19°C° 0 mm 3 mps 738 mmHg 87%
    03:00 +19°C° 0 mm 3 mps 738 mmHg 87%
    04:00 +19°C° 0 mm 3 mps 738 mmHg 87%
    05:00 +19°C° 0 mm 3 mps 738 mmHg 87%
    06:00 +21°C° 0 mm 4 mps 738 mmHg 81%
    07:00 +22°C° 0 mm 4 mps 738 mmHg 76%
    08:00 +25°C° 0 mm 5 mps 738 mmHg 71%
    09:00 +26°C° 0 mm 5 mps 738 mmHg 66%
    10:00 +27°C° 0 mm 5 mps 738 mmHg 61%
    11:00 +28°C° 0 mm 6 mps 737 mmHg 56%
    12:00 +29°C° 0 mm 6 mps 737 mmHg 56%
    13:00 +29°C° 0 mm 6 mps 737 mmHg 55%
    14:00 +29°C° 0 mm 6 mps 736 mmHg 55%
    15:00 +29°C° 0.1 mm 6 mps 736 mmHg 58%
    16:00 +28°C° 0.1 mm 5 mps 736 mmHg 61%
    17:00 +27°C° 0.1 mm 5 mps 736 mmHg 64%
    18:00 +26°C° 0 mm 4 mps 736 mmHg 69%
    19:00 +25°C° 0 mm 4 mps 736 mmHg 75%
    20:00 +22°C° 0 mm 3 mps 736 mmHg 80%
    21:00 +22°C° 0 mm 3 mps 736 mmHg 82%
    22:00 +21°C° 0 mm 3 mps 736 mmHg 84%
    23:00 +21°C° 0 mm 3 mps 736 mmHg 86%

    Day after tomorrow, 18 July, Wednesday

    Time Temperature Precipitation Wind Pressure Humidity
    00:00 +20°C° 0 mm 3 mps 736 mmHg 88%
    01:00 +20°C° 0 mm 3 mps 736 mmHg 91%
    02:00 +20°C° 0 mm 3 mps 736 mmHg 93%
    03:00 +20°C° 0 mm 4 mps 736 mmHg 93%
    04:00 +20°C° 0 mm 4 mps 736 mmHg 92%
    05:00 +20°C° 0 mm 4 mps 736 mmHg 91%
    06:00 +21°C° 0 mm 4 mps 736 mmHg 87%
    07:00 +22°C° 0 mm 4 mps 736 mmHg 83%
    08:00 +23°C° 0 mm 5 mps 736 mmHg 79%
    09:00 +25°C° 0 mm 5 mps 736 mmHg 72%
    10:00 +26°C° 0 mm 5 mps 736 mmHg 65%
    11:00 +28°C° 0 mm 6 mps 736 mmHg 58%
    12:00 +28°C° 0.1 mm 6 mps 736 mmHg 58%
    13:00 +28°C° 0.1 mm 6 mps 735 mmHg 58%
    14:00 +28°C° 0.1 mm 6 mps 735 mmHg 58%
    15:00 +27°C° 0.5 mm 5 mps 735 mmHg 67%
    16:00 +25°C° 0.5 mm 5 mps 736 mmHg 75%
    17:00 +23°C° 0.5 mm 4 mps 736 mmHg 84%
    18:00 +22°C° 0.1 mm 4 mps 736 mmHg 85%
    19:00 +21°C° 0.1 mm 4 mps 736 mmHg 87%
    20:00 +20°C° 0.1 mm 3 mps 736 mmHg 89%
    21:00 +20°C° 0 mm 3 mps 735 mmHg 91%
    22:00 +19°C° 0 mm 3 mps 735 mmHg 92%
    23:00 +19°C° 0 mm 3 mps 735 mmHg 94%

    19 July, Thursday

    Time Temperature Precipitation Wind Pressure Humidity
    00:00 +18°C° 0 mm 4 mps 735 mmHg 94%
    01:00 +18°C° 0 mm 4 mps 735 mmHg 94%
    02:00 +18°C° 0 mm 4 mps 735 mmHg 94%
    03:00 +18°C° 0.1 mm 4 mps 735 mmHg 93%
    04:00 +18°C° 0.1 mm 4 mps 735 mmHg 92%
    05:00 +18°C° 0.1 mm 4 mps 735 mmHg 92%
    06:00 +19°C° 0.1 mm 4 mps 735 mmHg 89%
    07:00 +20°C° 0.1 mm 4 mps 735 mmHg 86%
    08:00 +20°C° 0.1 mm 4 mps 735 mmHg 83%
    09:00 +21°C° 0.1 mm 4 mps 735 mmHg 81%
    10:00 +21°C° 0.1 mm 4 mps 736 mmHg 79%
    11:00 +22°C° 0.1 mm 4 mps 736 mmHg 77%
    12:00 +22°C° 0.3 mm 4 mps 736 mmHg 77%
    13:00 +24°C° 0.3 mm 3 mps 735 mmHg 77%
    14:00 +24°C° 0.3 mm 3 mps 735 mmHg 77%
    15:00 +25°C° 0.3 mm 3 mps 735 mmHg 78%
    16:00 +25°C° 0.3 mm 3 mps 735 mmHg 79%
    17:00 +25°C° 0.3 mm 3 mps 735 mmHg 80%
    18:00 +24°C° 0.4 mm 3 mps 735 mmHg 85%
    19:00 +23°C° 0.4 mm 2 mps 735 mmHg 90%
    20:00 +20°C° 0.4 mm 2 mps 735 mmHg 95%
    21:00 +20°C° 0.8 mm 2 mps 735 mmHg 96%
    22:00 +19°C° 0.8 mm 2 mps 735 mmHg 97%
    23:00 +19°C° 0.8 mm 2 mps 735 mmHg 98%

    20 July, Friday

    Time Temperature Precipitation Wind Pressure Humidity
    00:00 +19°C° 0.8 mm 2 mps 735 mmHg 98%
    01:00 +18°C° 0.8 mm 2 mps 735 mmHg 98%
    02:00 +18°C° 0.8 mm 2 mps 735 mmHg 98%
    03:00 +18°C° 0.2 mm 2 mps 735 mmHg 98%
    04:00 +19°C° 0.2 mm 2 mps 735 mmHg 98%
    05:00 +19°C° 0.2 mm 2 mps 735 mmHg 98%
    06:00 +20°C° 0.1 mm 2 mps 735 mmHg 95%
    07:00 +21°C° 0.1 mm 2 mps 736 mmHg 92%
    08:00 +23°C° 0.1 mm 2 mps 736 mmHg 88%
    09:00 +24°C° 0.3 mm 2 mps 736 mmHg 83%
    10:00 +25°C° 0.3 mm 3 mps 736 mmHg 77%
    11:00 +27°C° 0.3 mm 3 mps 735 mmHg 72%
    12:00 +26°C° 1.5 mm 3 mps 735 mmHg 76%
    13:00 +26°C° 1.5 mm 3 mps 735 mmHg 80%
    14:00 +26°C° 1.5 mm 3 mps 735 mmHg 85%
    15:00 +25°C° 0.8 mm 3 mps 735 mmHg 85%
    16:00 +25°C° 0.8 mm 3 mps 735 mmHg 85%
    17:00 +25°C° 0.8 mm 3 mps 735 mmHg 85%
    18:00 +24°C° 0.1 mm 3 mps 735 mmHg 88%
    19:00 +23°C° 0.1 mm 2 mps 735 mmHg 92%
    20:00 +21°C° 0.1 mm 2 mps 735 mmHg 95%
    21:00 +20°C° 0 mm 2 mps 735 mmHg 96%
    22:00 +19°C° 0 mm 2 mps 735 mmHg 97%
    23:00 +19°C° 0 mm 2 mps 735 mmHg 97%

    21 July, Saturday

    Time Temperature Precipitation Wind Pressure Humidity
    00:00 +18°C° 0 mm 2 mps 735 mmHg 97%
    01:00 +18°C° 0 mm 2 mps 735 mmHg 98%
    02:00 +18°C° 0 mm 2 mps 735 mmHg 98%
    03:00 +18°C° 0.1 mm 2 mps 735 mmHg 98%
    04:00 +19°C° 0.1 mm 1 mps 735 mmHg 98%
    05:00 +20°C° 0.1 mm 1 mps 735 mmHg 97%
    06:00 +21°C° 0 mm 1 mps 735 mmHg 94%
    07:00 +22°C° 0 mm 1 mps 735 mmHg 90%
    08:00 +24°C° 0 mm 1 mps 736 mmHg 86%
    09:00 +25°C° 0.4 mm 1 mps 736 mmHg 83%
    10:00 +25°C° 0.4 mm 1 mps 736 mmHg 81%
    11:00 +26°C° 0.4 mm 1 mps 735 mmHg 78%
    12:00 +27°C° 0.9 mm 1 mps 735 mmHg 77%
    13:00 +27°C° 0.9 mm 1 mps 735 mmHg 76%
    14:00 +28°C° 0.9 mm 1 mps 735 mmHg 75%
    15:00 +27°C° 1.3 mm 1 mps 735 mmHg 78%
    16:00 +27°C° 1.3 mm 1 mps 735 mmHg 82%
    17:00 +26°C° 1.3 mm 1 mps 735 mmHg 85%
    18:00 +25°C° 0.5 mm 1 mps 735 mmHg 88%
    19:00 +24°C° 0.5 mm 1 mps 735 mmHg 91%
    20:00 +23°C° 0.5 mm 1 mps 735 mmHg 94%
    21:00 +22°C° 0.2 mm 1 mps 735 mmHg 94%
    22:00 +22°C° 0.2 mm 1 mps 735 mmHg 95%
    23:00 +21°C° 0.2 mm 1 mps 736 mmHg 96%
    Show more